Simultaneous Nadir Overpasses (SNOs) Predictions

Prediction of SNOs between METOP-C and LANDSAT-8 Satellite Orbit:

Table of predicted SNOs for the next 14.0 days since TLE Epoch: 9/14/2024
Index Date (METOP-C) Time (METOP-C) Lat,Lon (METOP-C) SZA (METOP-C ) Date (LANDSAT-8) Time (LANDSAT-8) Lat,Lon (LANDSAT-8) SZA (LANDSAT-8 ) Distance(km) Time Diff (sec)
1 09/14/2024 21:43:19 81.09,-106.48 80.27 09/14/2024 21:44:13 81.09,-106.57 80.28 1.71 54
2 09/14/2024 22:33:58 -81.11, 61.35 99.66 09/14/2024 22:33:39 -81.11, 61.38 99.66 0.57 19
3 09/17/2024 17:17:43 81.10, -39.93 81.39 09/17/2024 17:18:28 81.10, -40.04 81.40 1.87 45
4 09/17/2024 18:08:22 -81.12, 127.92 98.53 09/17/2024 18:07:54 -81.12, 127.94 98.54 0.46 28
5 09/20/2024 12:52:07 81.09, 26.34 82.49 09/20/2024 12:52:41 81.10, 26.47 82.52 2.29 34
6 09/20/2024 13:42:45 -81.12,-165.41 97.38 09/20/2024 13:42:07 -81.12,-165.54 97.42 2.21 38
7 09/23/2024 08:26:28 81.10, 93.09 83.65 09/23/2024 08:26:51 81.10, 92.94 83.64 2.60 23
8 09/23/2024 09:17:07 -81.12, -99.02 96.27 09/23/2024 09:16:17 -81.12, -99.06 96.30 0.67 50
9 09/26/2024 04:00:50 81.11, 159.56 84.77 09/26/2024 04:01:00 81.10, 159.38 84.75 3.20 10



Historial Predications of SNOs between METOP-C and LANDSAT-8
